This is the latest recevied weather packets stored in our database for station/object G0TQM-11. If no packets are shown the sender has not sent any weather packets the latest 10 day(s).
| Time | Temp. | Humidity | Pressure | Rain* | Wind** | Luminosity | Snow |
|---|---|---|---|---|---|---|---|
| 1788350512 | 25° C | 48% | 1010.1 hPa | - | - | - | - |
| 1788349312 | 25° C | 49% | 1010.4 hPa | - | - | - | - |
| 1788348112 | 24.44° C | 54% | 1010.6 hPa | - | - | - | - |
| 1788346912 | 22.78° C | 56% | 1011.1 hPa | - | - | - | - |
| 1788345711 | 23.89° C | 53% | 1011.5 hPa | - | - | - | - |
| 1788344511 | 23.89° C | 51% | 1011.6 hPa | - | - | - | - |
| 1788343310 | 23.89° C | 51% | 1011.9 hPa | - | - | - | - |
| 1788342110 | 23.33° C | 52% | 1012.2 hPa | - | - | - | - |
| 1788340910 | 22.78° C | 52% | 1012.3 hPa | - | - | - | - |
| 1788339710 | 23.33° C | 49% | 1012.5 hPa | - | - | - | - |
| 1788338510 | 23.33° C | 51% | 1012.6 hPa | - | - | - | - |
| 1788337310 | 23.33° C | 51% | 1012.7 hPa | - | - | - | - |
| 1788336110 | 23.33° C | 51% | 1012.9 hPa | - | - | - | - |
| 1788334909 | 22.78° C | 51% | 1013 hPa | - | - | - | - |
| 1788333709 | 22.78° C | 50% | 1013.2 hPa | - | - | - | - |
| 1788332509 | 22.78° C | 50% | 1013.1 hPa | - | - | - | - |
| 1788331309 | 22.78° C | 49% | 1012.9 hPa | - | - | - | - |
| 1788330109 | 22.78° C | 49% | 1012.9 hPa | - | - | - | - |
| 1788328909 | 22.78° C | 48% | 1013 hPa | - | - | - | - |
| 1788327709 | 22.78° C | 48% | 1012.9 hPa | - | - | - | - |
| 1788326508 | 21.67° C | 50% | 1013 hPa | - | - | - | - |
| 1788325308 | 21.67° C | 51% | 1013.1 hPa | - | - | - | - |
| 1788324108 | 21.67° C | 49% | 1012.9 hPa | - | - | - | - |
| 1788322908 | 22.22° C | 48% | 1013.3 hPa | - | - | - | - |
| 1788321708 | 22.22° C | 48% | 1013.3 hPa | - | - | - | - |
* Rain since midnight (hover to see other rain measurements)
** Current wind speed in m/s (hover to see current wind gust speed)